When you browse on this site, cookies collect data to enhance your experience and personalize the content and advertising you see.
Visit our Privacy Policy to learn more. By continuing to use the site, you agree to this use of cookies and data.

Tiempo cada hora Gandia

Hoy, 3 Julio, Viernes

Tiempo Temperatura Precipitaciones Viento Presión Humedad
00:00 +25°C° 0 mm 3 mps 758 mmHg 94%
01:00 +25°C° 0.1 mm 4 mps 758 mmHg 93%
02:00 +25°C° 0.1 mm 4 mps 758 mmHg 92%
03:00 +25°C° 0.1 mm 5 mps 758 mmHg 90%
04:00 +25°C° 0.1 mm 5 mps 759 mmHg 87%
05:00 +26°C° 0.1 mm 5 mps 759 mmHg 83%
06:00 +26°C° 0 mm 5 mps 759 mmHg 79%
07:00 +26°C° 0.3 mm 5 mps 760 mmHg 77%
08:00 +27°C° 0.3 mm 5 mps 760 mmHg 74%
09:00 +27°C° 0.3 mm 4 mps 760 mmHg 72%
10:00 +27°C° 0.3 mm 4 mps 760 mmHg 72%
11:00 +28°C° 0.3 mm 4 mps 760 mmHg 71%
12:00 +28°C° 0 mm 4 mps 761 mmHg 69%
13:00 +29°C° 0.1 mm 4 mps 760 mmHg 68%
14:00 +29°C° 0.1 mm 4 mps 760 mmHg 67%
15:00 +29°C° 0.1 mm 4 mps 760 mmHg 65%
16:00 +29°C° 0 mm 4 mps 760 mmHg 65%
17:00 +29°C° 0 mm 5 mps 760 mmHg 65%
18:00 +29°C° 0 mm 5 mps 760 mmHg 65%
19:00 +28°C° 0 mm 4 mps 761 mmHg 71%
20:00 +26°C° 0 mm 4 mps 761 mmHg 78%
21:00 +25°C° 0 mm 3 mps 761 mmHg 85%
22:00 +25°C° 0 mm 3 mps 761 mmHg 86%
23:00 +24°C° 0 mm 3 mps 762 mmHg 88%

Mañana, 4 Julio, Sábado

Tiempo Temperatura Precipitaciones Viento Presión Humedad
00:00 +24°C° 0 mm 3 mps 762 mmHg 90%
01:00 +24°C° 0 mm 3 mps 762 mmHg 90%
02:00 +24°C° 0 mm 2 mps 762 mmHg 90%
03:00 +23°C° 0 mm 2 mps 762 mmHg 89%
04:00 +24°C° 0 mm 1 mps 762 mmHg 86%
05:00 +25°C° 0 mm 1 mps 762 mmHg 83%
06:00 +25°C° 0 mm 1 mps 762 mmHg 79%
07:00 +27°C° 0 mm 1 mps 762 mmHg 71%
08:00 +29°C° 0 mm 1 mps 762 mmHg 62%
09:00 +30°C° 0 mm 2 mps 762 mmHg 54%
10:00 +33°C° 0 mm 3 mps 762 mmHg 50%
11:00 +34°C° 0 mm 4 mps 762 mmHg 46%
12:00 +35°C° 0 mm 6 mps 762 mmHg 43%
13:00 +35°C° 0 mm 6 mps 762 mmHg 43%
14:00 +35°C° 0 mm 6 mps 761 mmHg 43%
15:00 +35°C° 0 mm 7 mps 761 mmHg 43%
16:00 +34°C° 0 mm 7 mps 761 mmHg 48%
17:00 +33°C° 0 mm 6 mps 761 mmHg 52%
18:00 +30°C° 0 mm 6 mps 760 mmHg 57%
19:00 +29°C° 0 mm 5 mps 761 mmHg 65%
20:00 +27°C° 0 mm 4 mps 762 mmHg 73%
21:00 +25°C° 0 mm 3 mps 762 mmHg 81%
22:00 +25°C° 0 mm 3 mps 762 mmHg 83%
23:00 +24°C° 0 mm 2 mps 762 mmHg 84%

Pasado mañana, 5 Julio, Domingo

Tiempo Temperatura Precipitaciones Viento Presión Humedad
00:00 +24°C° 0 mm 1 mps 762 mmHg 86%
01:00 +24°C° 0 mm 1 mps 762 mmHg 86%
02:00 +24°C° 0 mm 1 mps 762 mmHg 86%
03:00 +23°C° 0 mm 1 mps 762 mmHg 86%
04:00 +24°C° 0 mm 1 mps 762 mmHg 81%
05:00 +25°C° 0 mm 1 mps 762 mmHg 77%
06:00 +26°C° 0 mm 1 mps 762 mmHg 72%
07:00 +28°C° 0 mm 1 mps 762 mmHg 62%
08:00 +30°C° 0 mm 2 mps 761 mmHg 53%
09:00 +32°C° 0 mm 2 mps 761 mmHg 44%
10:00 +34°C° 0 mm 3 mps 761 mmHg 41%
11:00 +35°C° 0 mm 4 mps 761 mmHg 38%
12:00 +36°C° 0 mm 5 mps 761 mmHg 35%
13:00 +36°C° 0 mm 6 mps 761 mmHg 36%
14:00 +36°C° 0 mm 6 mps 760 mmHg 36%
15:00 +36°C° 0 mm 7 mps 760 mmHg 36%
16:00 +35°C° 0 mm 7 mps 760 mmHg 40%
17:00 +34°C° 0 mm 7 mps 759 mmHg 43%
18:00 +33°C° 0 mm 6 mps 759 mmHg 47%
19:00 +30°C° 0 mm 5 mps 759 mmHg 54%
20:00 +28°C° 0 mm 4 mps 760 mmHg 62%
21:00 +26°C° 0 mm 3 mps 760 mmHg 69%
22:00 +26°C° 0 mm 3 mps 760 mmHg 71%
23:00 +25°C° 0 mm 2 mps 760 mmHg 72%

6 Julio, Lunes

Tiempo Temperatura Precipitaciones Viento Presión Humedad
00:00 +25°C° 0 mm 2 mps 759 mmHg 73%
01:00 +25°C° 0 mm 2 mps 759 mmHg 73%
02:00 +24°C° 0 mm 1 mps 759 mmHg 73%
03:00 +24°C° 0 mm 1 mps 758 mmHg 73%
04:00 +25°C° 0 mm 1 mps 758 mmHg 68%
05:00 +26°C° 0 mm 1 mps 759 mmHg 63%
06:00 +27°C° 0 mm 1 mps 759 mmHg 58%
07:00 +29°C° 0 mm 1 mps 759 mmHg 50%
08:00 +31°C° 0 mm 2 mps 759 mmHg 42%
09:00 +34°C° 0 mm 2 mps 759 mmHg 35%
10:00 +36°C° 0 mm 3 mps 758 mmHg 32%
11:00 +37°C° 0 mm 4 mps 758 mmHg 29%
12:00 +39°C° 0 mm 5 mps 758 mmHg 27%
13:00 +39°C° 0 mm 5 mps 758 mmHg 27%
14:00 +39°C° 0 mm 6 mps 757 mmHg 27%
15:00 +39°C° 0 mm 7 mps 757 mmHg 27%
16:00 +36°C° 0 mm 7 mps 757 mmHg 29%
17:00 +35°C° 0 mm 7 mps 757 mmHg 31%
18:00 +34°C° 0 mm 7 mps 756 mmHg 34%
19:00 +32°C° 0 mm 6 mps 757 mmHg 41%
20:00 +29°C° 0 mm 5 mps 757 mmHg 48%
21:00 +27°C° 0 mm 4 mps 757 mmHg 55%
22:00 +26°C° 0 mm 3 mps 757 mmHg 56%
23:00 +26°C° 0 mm 2 mps 757 mmHg 56%

7 Julio, Martes

Tiempo Temperatura Precipitaciones Viento Presión Humedad
00:00 +25°C° 0 mm 1 mps 757 mmHg 56%
01:00 +25°C° 0 mm 1 mps 757 mmHg 57%
02:00 +25°C° 0 mm 1 mps 757 mmHg 59%
03:00 +24°C° 0 mm 1 mps 757 mmHg 60%
04:00 +25°C° 0 mm 1 mps 757 mmHg 58%
05:00 +26°C° 0 mm 1 mps 757 mmHg 56%
06:00 +27°C° 0 mm 1 mps 757 mmHg 54%
07:00 +28°C° 0 mm 2 mps 757 mmHg 52%
08:00 +30°C° 0 mm 2 mps 758 mmHg 49%
09:00 +31°C° 0 mm 3 mps 758 mmHg 46%
10:00 +33°C° 0 mm 4 mps 758 mmHg 44%
11:00 +34°C° 0 mm 4 mps 757 mmHg 41%
12:00 +35°C° 0 mm 5 mps 757 mmHg 39%
13:00 +35°C° 0 mm 6 mps 757 mmHg 42%
14:00 +35°C° 0 mm 6 mps 757 mmHg 45%
15:00 +35°C° 0 mm 6 mps 756 mmHg 47%
16:00 +34°C° 0 mm 6 mps 756 mmHg 51%
17:00 +33°C° 0 mm 6 mps 756 mmHg 54%
18:00 +32°C° 0 mm 5 mps 756 mmHg 57%
19:00 +29°C° 0 mm 5 mps 757 mmHg 65%
20:00 +27°C° 0 mm 4 mps 758 mmHg 73%
21:00 +26°C° 0 mm 4 mps 758 mmHg 80%
22:00 +25°C° 0 mm 3 mps 758 mmHg 83%
23:00 +25°C° 0 mm 3 mps 758 mmHg 85%

8 Julio, Miércoles

Tiempo Temperatura Precipitaciones Viento Presión Humedad
00:00 +24°C° 0 mm 2 mps 758 mmHg 87%
01:00 +24°C° 0 mm 2 mps 758 mmHg 87%
02:00 +24°C° 0 mm 2 mps 758 mmHg 87%
03:00 +24°C° 0 mm 2 mps 758 mmHg 87%
04:00 +24°C° 0 mm 2 mps 758 mmHg 85%
05:00 +24°C° 0 mm 2 mps 758 mmHg 83%
06:00 +25°C° 0 mm 1 mps 758 mmHg 81%
07:00 +26°C° 0 mm 2 mps 758 mmHg 72%
08:00 +28°C° 0 mm 2 mps 759 mmHg 64%
09:00 +30°C° 0 mm 2 mps 759 mmHg 55%
10:00 +31°C° 0 mm 3 mps 759 mmHg 51%
11:00 +33°C° 0 mm 4 mps 758 mmHg 48%
12:00 +34°C° 0 mm 4 mps 758 mmHg 45%
13:00 +34°C° 0 mm 5 mps 758 mmHg 46%
14:00 +34°C° 0 mm 5 mps 758 mmHg 46%
15:00 +34°C° 0 mm 5 mps 757 mmHg 47%
16:00 +33°C° 0 mm 5 mps 757 mmHg 49%
17:00 +32°C° 0 mm 5 mps 757 mmHg 50%
18:00 +30°C° 0 mm 4 mps 757 mmHg 51%
19:00 +29°C° 0 mm 4 mps 757 mmHg 56%
20:00 +27°C° 0 mm 3 mps 758 mmHg 61%
21:00 +26°C° 0 mm 2 mps 758 mmHg 66%
22:00 +25°C° 0 mm 2 mps 758 mmHg 70%
23:00 +25°C° 0 mm 2 mps 758 mmHg 73%
Mostrar más